Location: Colonia Mina de C?rbuni
(46.1667°N, 22.7167°E)
Time: 09:49:15
(UTC+00:00)

deb Explorer IX - Pass Details

Date: 21 April 2024
Orbit: 513 x 891 km, 38.7° (Epoch: 21 May)

Event Time Altitude Azimuth Distance (km) Brightness Sun altitude
Rises 11:08:01 0° 254° (WSW) 3,444 ? 54.9°
Reaches altitude 10° 11:10:39 10° 248° (WSW) 2,541 ? 54.8°
Maximum altitude 11:16:24 43° 179° (S) 1,254 ? 54.4°
Drops below altitude 10° 11:22:13 10° 110° (ESE) 2,572 ? 54.1°
Sets 11:24:54 0° 104° (ESE) 3,490 ? 53.9°
